map of YRQ home
Great Circle Mapper logo
YRQ - Airport
Location
City:  Trois-Rivières, Québec, Canada
ICAO / IATA:CYRQ / YRQ

Details
Type:Airport (Airfield)
Use:Public/Civil, International (customs port of entry)
Latitude:46°21'10"N (46.352779)
Longitude:72°40'46"W (-72.679443)
Datum:WGS 1984
Elevation:199 ft (61 m)
Variation:15.36°W (WMM2015 magnetic declination)
0.08° annual change
Runways:1
Longest:6000 × 150 ft (1829 × 45.5 m), paved

Time
Time Zone:UTC-5 (DST-4)
Local Time:

Weather
METAR:CYRQ 281100Z AUTO 35011G16KT 9SM BKN055 OVC240 M16/M24 A3005 RMK SLP182
TAF:CYRQ 280740Z 2808/2820 35012G22KT P6SM SCT050 OVC100
TEMPO 2808/2812 5SM -SN OVC050
FM281200 35012G22KT P6SM SKC
BECMG 2816/2818 34010KT
RMK FCST BASED ON AUTO OBS. NXT FCST BY 281400Z

Related Locations
Nearby:
Farthest:YDEK: 11487 mi / 18486 km
Denmark, WA, AU

Find:

   beyond  
but within

Other Information
Maps:
NOTAMs:
Links:
Sources:

  
flag of Canada
flag of Québec
  

Airport Diagram

Airport diagram for YRQ

Airport diagram PDF

Sectional Chart

Flight Planning
at skyvector.com

Satellite Image

Google Maps Satellite View

 

Copyright © 2004-2015 Karl L. Swartz. All rights reserved.
The Great Circle Mapper name and logo are trademarks of the Great Circle Mapper.
All other trademarks mentioned herein belong to their respective owners.
Please see credits for attibutions and further copyright information.

  Follow gcmap on Facebook Follow gcmap on Twitter

hCard Microformat

Geo Microformat